Location: Arboyeti
(42.1122°N, 44.6017°E)
Time: 16:34:48
(UTC+00:00)

Gbstr 26 Del rocket - Pass Details

Date: 19 April 2021
Orbit: 493 x 1263 km, 51.8° (Epoch: 07 May)

Event Time Altitude Azimuth Distance (km) Brightness Sun altitude
Exits shadow 22:26:54 55° 39° (NE) 1,046 4.3 -32.8°
Drops below altitude 10° 22:31:03 10° 54° (NE) 2,329 6.7 -32.5°
Sets 22:33:15 0° 56° (NE) 3,148 7.5 -32.3°
